Hourly Weather Roundup
Issued by NWS Central Illinois

Home | Current Version | Previous Version | Text Only | Print | Product List | Glossary On
Versions: 1 2 3 4 5 6 7 8 9 10 11 12 13 14 15 16 17 18 19 20 21 22 23 24 25 26 27 28 29 30 31 32 33 34 35 36 37 38 39 40 41 42 43 44 45 46 47 48 49 50
000
NZUS43 KILX 171410
HWRILX

AREA WEATHER ROUNDUP
NATIONAL WEATHER SERVICE, LINCOLN IL
800 AM CST TUE JAN 17 2017


CITY           SKY/WX    TMP DP  RH WIND       PRES   REMARKS
BLOOMINGTON    FOG       40  40 100 SW16      29.90R VSB 1/4 WCI  31
CHAMPAIGN      CLOUDY    43  41  93 SW17      29.91R
DANVILLE       CLOUDY    44  43  95 SW12      29.88R
DECATUR        CLOUDY    43  42  97 W9        29.93R
EFFINGHAM      CLOUDY    45  42  88 SW6       29.98R
FLORA          CLOUDY    47  41  81 W13G20    29.98R
GALESBURG      CLOUDY    35  35 100 W10       29.90R WCI  27
JACKSONVILLE   CLOUDY    40  39  96 W12       29.94R WCI  34
LACON          FOG       37  37 100 W8        29.89R VSB 1   WCI  30
LAWRENCEVILLE  MOCLDY    49  45  86 W12       29.96R
LITCHFIELD     CLOUDY    41  38  92 W15       29.96R WCI  33
$$


CITY           SKY/WX    TMP DP  RH WIND       PRES   REMARKS
LINCOLN        CLOUDY    42  42  99 W8        29.92S FOG
MACOMB         CLOUDY    36  36 100 W10       29.95R WCI  28
MATTOON        CLOUDY    44  40  85 W10       29.93R
MT CARMEL AP   MOCLDY    48  43  83 W12       29.96R
OLNEY-NOBLE AP CLOUDY    45  45 100 W9G18     29.98R
PARIS          CLOUDY    45  42  90 W10G18    29.92S
PEORIA         CLOUDY    38  38 100 W7        29.91R WCI  33
PONTIAC        CLOUDY    40  40 100 W14       29.89R FOG     WCI  33
RANTOUL        CLOUDY    44  43  97 W10       29.90R FOG
SPRINGFIELD    CLOUDY    42  40  92 W15       29.94R FOG     WCI  34
TAYLORVILLE    CLOUDY    41  39  93 W16       29.95R WCI  33
$$

...REGIONAL REPORTS...


CITY           SKY/WX    TMP DP  RH WIND       PRES   REMARKS
CHICAGO O`HARE CLOUDY    37  36  96 W9        29.80R FOG     WCI  30
KANKAKEE       CLOUDY    40  40  98 W12       29.87R FOG     WCI  34
MOLINE         CLOUDY    35  34  96 W12       29.90R FOG     WCI  27
MOUNT STERLING CLOUDY    37  37  99 W10       29.94R FOG     WCI  30
MOUNT VERNON   CLOUDY    45  39  79 W8        30.00R
PITTSFIELD     CLOUDY    41  40  94 W12G17    29.96S WCI  35
QUINCY         CLOUDY    37  36  96 W10       29.96R FOG     WCI  30
ROCKFORD       FOG       35  34  96 W6        29.86R VSB 1/4 WCI  30
$$


CITY           SKY/WX    TMP DP  RH WIND       PRES   REMARKS
BURLINGTON     CLOUDY    35  34  96 W9        29.93R WCI  28
CEDAR RAPIDS   FOG       32  32 100 W8        29.90R VSB 1   WCI  25
DES MOINES     DRZL/FOG  34  33  96 NW10      29.97S VSB 1   WCI  26
KIRKSVILLE     CLOUDY    35  33  92 W9        29.99R WCI  28
OTTUMWA        CLOUDY    34  33  96 NW10      29.94R FOG     WCI  26
ST LOUIS       CLOUDY    44  37  76 W17G23    29.98R
$$


CITY           SKY/WX    TMP DP  RH WIND       PRES   REMARKS
TERRE HAUTE    CLOUDY    49  43  80 W13       29.92S
EVANSVILLE     CLOUDY    52  46  80 NW9       29.98R
INDIANAPOLIS   MOCLDY    51  48  89 W10       29.89R
LAFAYETTE      CLOUDY    46  43  89 W12G18    29.87R
MADISON        FOG       33  33 100 NW5       29.83R VSB 3/4 WCI  29
MILWAUKEE      DRZL/FOG  37  35  92 NW8       29.79S VSB 1/2 WCI  31
$$






USA.gov is the U.S. government's official web portal to all federal, state and local government web resources and services.